This is the latest recevied weather packets stored in our database for station/object K5NWZ. If no packets are shown the sender has not sent any weather packets the latest 10 day(s).
| Time | Temp. | Humidity | Pressure | Rain* | Wind** | Luminosity | Snow |
|---|---|---|---|---|---|---|---|
| 1777846083 | 22.78° C | 20% | 1019.5 hPa | 0 mm | - | 178 W/m² | - |
| 1777845780 | 22.22° C | 20% | 1019.2 hPa | 0 mm | - | 202 W/m² | - |
| 1777845477 | 22.78° C | 18% | 1019.5 hPa | 0 mm | - | 207 W/m² | - |
| 1777845174 | 22.78° C | 18% | 1019.5 hPa | 0 mm | - | 210 W/m² | - |
| 1777844872 | 22.78° C | 19% | 1019.5 hPa | 0 mm | - | 219 W/m² | - |
| 1777844569 | 23.33° C | 18% | 1019.7 hPa | 0 mm | - | 230 W/m² | - |
| 1777844266 | 23.33° C | 17% | 1019.2 hPa | 0 mm | - | 235 W/m² | - |
| 1777843964 | 23.33° C | 16% | 1019.6 hPa | 0 mm | - | 254 W/m² | - |
| 1777843660 | 23.33° C | 16% | 1019.7 hPa | 0 mm | - | 282 W/m² | - |
| 1777843358 | 23.33° C | 16% | 1019.8 hPa | 0 mm | - | 303 W/m² | - |
| 1777843056 | 23.33° C | 16% | 1019.9 hPa | 0 mm | - | 310 W/m² | - |
| 1777842752 | 23.33° C | 17% | 1020.1 hPa | 0 mm | - | 340 W/m² | - |
| 1777842447 | 23.33° C | 16% | 1020.1 hPa | 0 mm | - | 361 W/m² | - |
| 1777842145 | 23.33° C | 17% | 1020.5 hPa | 0 mm | - | 356 W/m² | - |
| 1777841840 | 22.78° C | 18% | 1020.4 hPa | 0 mm | - | 337 W/m² | - |
| 1777841536 | 22.78° C | 17% | 1020.2 hPa | 0 mm | - | 317 W/m² | - |
| 1777841233 | 22.78° C | 16% | 1020.6 hPa | 0 mm | - | 352 W/m² | - |
| 1777840931 | 22.78° C | 18% | 1020.5 hPa | 0 mm | - | 309 W/m² | - |
| 1777840627 | 23.33° C | 17% | 1020.7 hPa | 0 mm | - | 322 W/m² | - |
| 1777840325 | 23.33° C | 17% | 1020.9 hPa | 0 mm | - | 382 W/m² | - |
| 1777840021 | 23.33° C | 16% | 1020.9 hPa | 0 mm | - | 351 W/m² | - |
| 1777839720 | 23.33° C | 16% | 1021.1 hPa | 0 mm | - | 397 W/m² | - |
| 1777839417 | 22.78° C | 16% | 1021.1 hPa | 0 mm | - | 443 W/m² | - |
| 1777839115 | 22.78° C | 17% | 1021.1 hPa | 0 mm | - | 421 W/m² | - |
| 1777838805 | 22.78° C | 17% | 1021.3 hPa | 0 mm | - | 355 W/m² | - |
* Rain latest hour (hover to see other rain measurements)
** Current wind speed in m/s (hover to see current wind gust speed)